TimeMST,TemperatureF,Dew PointF,Humidity,Sea Level PressureIn,VisibilityMPH,Wind Direction,Wind SpeedMPH,Gust SpeedMPH,PrecipitationIn,Events,Conditions,WindDirDegrees,DateUTC
12:53 AM,48.0,28.0,46,30.17,10.0,South,10.4,-,N/A,,Clear,190,2012-11-04 06:53:00
1:53 AM,46.0,27.0,47,30.19,10.0,SSW,12.7,-,N/A,,Clear,200,2012-11-04 07:53:00
1:53 AM,46.9,28.0,48,30.19,10.0,SSW,8.1,-,N/A,,Clear,200,2012-11-04 08:53:00
2:53 AM,48.0,27.0,44,30.20,10.0,South,10.4,-,N/A,,Clear,190,2012-11-04 09:53:00
3:53 AM,46.9,28.0,48,30.19,10.0,South,11.5,-,N/A,,Clear,190,2012-11-04 10:53:00
4:53 AM,46.0,28.0,50,30.21,10.0,SSW,11.5,-,N/A,,Clear,200,2012-11-04 11:53:00
5:53 AM,45.0,28.0,52,30.26,10.0,SSW,12.7,-,N/A,,Clear,200,2012-11-04 12:53:00
6:53 AM,46.9,28.0,48,30.27,10.0,SSW,10.4,-,N/A,,Clear,210,2012-11-04 13:53:00
7:53 AM,46.9,28.0,48,30.30,10.0,SSW,9.2,-,N/A,,Clear,200,2012-11-04 14:53:00
8:53 AM,52.0,30.0,43,30.31,10.0,South,8.1,-,N/A,,Clear,190,2012-11-04 15:53:00
9:53 AM,57.9,28.9,33,30.30,10.0,SW,9.2,-,N/A,,Partly Cloudy,220,2012-11-04 16:53:00
10:53 AM,62.1,28.0,28,30.31,9.0,West,10.4,-,N/A,,Overcast,280,2012-11-04 17:53:00
11:53 AM,61.0,32.0,34,30.31,8.0,WNW,4.6,-,N/A,,Mostly Cloudy,300,2012-11-04 18:53:00
12:53 PM,63.0,28.9,28,30.31,8.0,West,9.2,-,N/A,,Partly Cloudy,280,2012-11-04 19:53:00
1:53 PM,64.9,30.9,28,30.29,10.0,West,8.1,-,N/A,,Clear,280,2012-11-04 20:53:00
2:53 PM,64.9,32.0,29,30.28,10.0,West,12.7,19.6,N/A,,Clear,270,2012-11-04 21:53:00
3:53 PM,64.0,34.0,33,30.30,10.0,West,13.8,-,N/A,,Clear,280,2012-11-04 22:53:00
4:53 PM,59.0,34.0,39,30.30,10.0,WSW,6.9,-,N/A,,Clear,250,2012-11-04 23:53:00
5:53 PM,52.0,34.0,50,30.33,10.0,SW,6.9,-,N/A,,Clear,230,2012-11-05 00:53:00
6:53 PM,53.1,34.0,48,30.35,10.0,SW,9.2,-,N/A,,Clear,220,2012-11-05 01:53:00
7:53 PM,51.1,34.0,52,30.36,10.0,SSW,11.5,-,N/A,,Clear,200,2012-11-05 02:53:00
8:53 PM,48.9,33.1,54,30.35,10.0,South,12.7,-,N/A,,Clear,190,2012-11-05 03:53:00
9:53 PM,50.0,33.1,52,30.35,10.0,South,11.5,-,N/A,,Clear,190,2012-11-05 04:53:00
10:53 PM,48.9,33.1,54,30.33,10.0,South,12.7,-,N/A,,Clear,180,2012-11-05 05:53:00